Orbital Elements at Epoch 2459200.5 (2020-Dec-17.0) TDB
Reference: JPL 2 (heliocentric ecliptic J2000)
Element | Value | Uncertainty (1-sigma) | Units |
e | .4972964166425084 | 0.024174 | |
a | 79.38276596688337 | 2.6449 | au |
q | 39.90600090838139 | 0.5966 | au |
i | 31.3095316171587 | 0.0071558 | deg |
node | 36.98738718156542 | 0.0073275 | deg |
peri | 256.141416355782 | 0.81011 | deg |
M | 316.1796108842934 | 3.4043 | deg |
tp | 2490646.216629526738 (2107-Jan-21.71662953) | 872.25 | TDB |
period | 258337.6874344552 707.29 | 12911 35.35 | d yr |
n | .001393524899812918 | 6.9644e-05 | deg/d |
Q | 118.8595310253853 | 3.9601 | au |
|
| | Orbit Determination Parameters
Additional Information
|